Torna al catalogo

USA 99

AttivoMilitareGEO
NORAD 22988·PAYLOAD·🇺🇸 United States

Lanciato Feb 7, 1994 da Cape Canaveral Space Force Station

Loading…

TLE

AggiornatoSource: Space-Track

Epoca: Sep 14, 2026, 12:11 UTC

1 22988U 94009A   26257.50810311 -.00000004  00000-0  00000-0 0  9997
2 22988  17.7584  26.7742 0002765 205.7677 170.2950  0.98721869 33836

Traccia USA 99 in tempo reale con AllMySat

Download on the App Store